Time,TemperatureF,DewpointF,PressureIn,WindDirection,WindDirectionDegrees,WindSpeedMPH,WindSpeedGustMPH,Humidity,HourlyPrecipIn,Conditions,Clouds,dailyrainin,SoftwareType,DateUTC
2013-11-05 00:01:00,37.9,24.0,30.50,SE,128,3.5,3.5,57,0.00,,,0.00,WeatherDisplay:10.37,2013-11-05 05:01:00,
2013-11-05 00:02:00,37.9,24.0,30.50,SSE,151,2.3,0.0,57,0.00,CLR,,0.00,WeatherDisplay:10.37,2013-11-05 05:02:00,
2013-11-05 00:04:00,37.9,24.0,30.50,SSE,151,0.0,0.0,57,0.00,,,0.00,WeatherDisplay:10.37,2013-11-05 05:04:00,
2013-11-05 00:09:00,38.2,24.3,30.50,ESE,107,2.0,2.0,57,0.00,,,0.00,WeatherDisplay:10.37,2013-11-05 05:09:00,
2013-11-05 00:14:00,38.4,24.5,30.51,SE,145,10.4,10.4,57,0.00,,,0.00,WeatherDisplay:10.37,2013-11-05 05:14:00,
2013-11-05 00:19:00,38.4,24.1,30.50,South,179,0.0,0.0,56,0.00,,,0.00,WeatherDisplay:10.37,2013-11-05 05:19:00,
2013-11-05 00:24:00,38.2,23.9,30.50,SSE,153,5.8,0.0,56,0.00,,,0.00,WeatherDisplay:10.37,2013-11-05 05:24:00,
2013-11-05 00:29:00,38.2,24.3,30.50,SSE,161,3.0,3.0,57,0.00,,,0.00,WeatherDisplay:10.37,2013-11-05 05:29:00,
2013-11-05 00:34:00,38.1,24.2,30.50,SE,143,2.3,2.3,57,0.00,,,0.00,WeatherDisplay:10.37,2013-11-05 05:34:00,
2013-11-05 00:39:00,37.9,24.4,30.50,SSE,151,0.0,0.0,58,0.00,,,0.00,WeatherDisplay:10.37,2013-11-05 05:39:00,
2013-11-05 00:44:00,37.9,24.0,30.50,SW,228,4.6,4.6,57,0.00,,,0.00,WeatherDisplay:10.37,2013-11-05 05:44:00,
2013-11-05 00:49:00,37.8,24.3,30.50,SE,132,3.5,3.5,58,0.00,,,0.00,WeatherDisplay:10.37,2013-11-05 05:49:00,
2013-11-05 00:54:00,37.7,24.2,30.50,South,179,2.3,2.3,58,0.00,,,0.00,WeatherDisplay:10.37,2013-11-05 05:54:00,
2013-11-05 00:59:00,37.7,25.1,30.50,SSE,156,0.0,0.0,60,0.00,,,0.00,WeatherDisplay:10.37,2013-11-05 05:59:00,
2013-11-05 01:04:00,37.6,24.6,30.50,ESE,110,0.0,0.0,59,0.00,,,0.00,WeatherDisplay:10.37,2013-11-05 06:04:00,
2013-11-05 01:09:00,37.6,25.0,30.50,SE,146,0.0,0.0,60,0.00,,,0.00,WeatherDisplay:10.37,2013-11-05 06:09:00,
2013-11-05 01:14:00,37.6,24.6,30.50,WSW,242,0.0,0.0,59,0.00,,,0.00,WeatherDisplay:10.37,2013-11-05 06:14:00,
2013-11-05 01:19:00,37.7,23.8,30.50,SSW,199,5.8,5.8,57,0.00,,,0.00,WeatherDisplay:10.37,2013-11-05 06:19:00,
2013-11-05 01:24:00,37.9,24.8,30.50,South,183,0.0,0.0,59,0.00,,,0.00,WeatherDisplay:10.37,2013-11-05 06:24:00,
2013-11-05 01:29:00,37.8,24.7,30.50,SSE,155,0.0,0.0,59,0.00,,,0.00,WeatherDisplay:10.37,2013-11-05 06:29:00,
2013-11-05 01:34:00,37.7,24.6,30.50,SE,127,0.0,0.0,59,0.00,,,0.00,WeatherDisplay:10.37,2013-11-05 06:34:00,
2013-11-05 01:39:00,37.7,25.1,30.50,SSW,198,3.0,3.0,60,0.00,,,0.00,WeatherDisplay:10.37,2013-11-05 06:39:00,
2013-11-05 01:44:00,37.6,24.1,30.50,SSW,201,0.0,0.0,58,0.00,,,0.00,WeatherDisplay:10.37,2013-11-05 06:44:00,
2013-11-05 01:49:00,37.6,24.6,30.50,SSE,165,0.0,0.1,59,0.00,,,0.00,WeatherDisplay:10.37,2013-11-05 06:49:00,
2013-11-05 01:54:00,37.7,24.6,30.50,WSW,238,3.5,0.0,59,0.00,,,0.00,WeatherDisplay:10.37,2013-11-05 06:54:00,
2013-11-05 01:59:00,37.7,24.6,30.51,SSE,162,0.0,0.0,59,0.00,,,0.00,WeatherDisplay:10.37,2013-11-05 06:59:00,
2013-11-05 02:04:00,37.8,25.1,30.51,SSW,197,0.0,0.0,60,0.00,,,0.00,WeatherDisplay:10.37,2013-11-05 07:04:00,
2013-11-05 02:09:00,37.9,25.2,30.51,South,187,0.0,0.0,60,0.00,,,0.00,WeatherDisplay:10.37,2013-11-05 07:09:00,
2013-11-05 02:14:00,37.9,24.8,30.51,SSW,203,0.0,0.0,59,0.00,,,0.00,WeatherDisplay:10.37,2013-11-05 07:14:00,
2013-11-05 02:19:00,38.0,25.3,30.51,South,188,0.0,0.0,60,0.00,,,0.00,WeatherDisplay:10.37,2013-11-05 07:19:00,
2013-11-05 02:24:00,38.1,25.0,30.51,SSE,148,2.3,0.0,59,0.00,,,0.00,WeatherDisplay:10.37,2013-11-05 07:24:00,
2013-11-05 02:29:00,38.4,24.9,30.51,SE,139,5.8,5.8,58,0.00,,,0.00,WeatherDisplay:10.37,2013-11-05 07:29:00,
2013-11-05 02:34:00,38.7,25.6,30.51,SSW,212,3.5,3.5,59,0.00,,,0.00,WeatherDisplay:10.37,2013-11-05 07:34:00,
2013-11-05 02:39:00,39.1,24.7,30.51,SSE,148,3.5,3.5,56,0.00,,,0.00,WeatherDisplay:10.37,2013-11-05 07:39:00,
2013-11-05 02:44:00,39.2,25.2,30.51,SSW,194,1.1,1.1,57,0.00,,,0.00,WeatherDisplay:10.37,2013-11-05 07:44:00,
2013-11-05 02:49:00,39.5,24.7,30.51,SE,138,2.3,2.3,55,0.00,,,0.00,WeatherDisplay:10.37,2013-11-05 07:49:00,
2013-11-05 02:54:00,39.4,25.0,30.51,SW,224,0.0,1.0,56,0.00,,,0.00,WeatherDisplay:10.37,2013-11-05 07:54:00,
2013-11-05 02:59:00,39.4,24.6,30.51,SW,217,0.0,0.0,55,0.00,,,0.00,WeatherDisplay:10.37,2013-11-05 07:59:00,
2013-11-05 03:04:00,39.5,24.7,30.51,SW,227,2.3,2.3,55,0.00,,,0.00,WeatherDisplay:10.37,2013-11-05 08:04:00,
2013-11-05 03:09:00,39.4,24.1,30.51,SSE,149,0.0,0.0,54,0.00,,,0.00,WeatherDisplay:10.37,2013-11-05 08:09:00,
2013-11-05 03:14:00,39.5,24.7,30.51,SSW,200,2.3,2.3,55,0.00,,,0.00,WeatherDisplay:10.37,2013-11-05 08:14:00,
2013-11-05 03:19:00,39.5,24.7,30.51,SSE,166,3.5,0.0,55,0.00,,,0.00,WeatherDisplay:10.37,2013-11-05 08:19:00,
2013-11-05 03:24:00,39.5,25.1,30.51,ESE,120,0.0,0.0,56,0.00,,,0.00,WeatherDisplay:10.37,2013-11-05 08:24:00,
2013-11-05 03:30:00,39.5,25.5,30.50,SE,138,3.5,3.5,57,0.00,,,0.00,WeatherDisplay:10.37,2013-11-05 08:30:00,
2013-11-05 03:35:00,39.6,24.3,30.50,South,191,11.5,11.5,54,0.00,,,0.00,WeatherDisplay:10.37,2013-11-05 08:35:00,
2013-11-05 03:40:00,39.6,24.3,30.50,ESE,117,3.0,3.0,54,0.00,,,0.00,WeatherDisplay:10.37,2013-11-05 08:40:00,
2013-11-05 03:45:00,39.7,24.8,30.50,South,191,0.0,0.0,55,0.00,,,0.00,WeatherDisplay:10.37,2013-11-05 08:45:00,
2013-11-05 03:50:00,39.6,24.7,30.50,South,176,2.3,2.3,55,0.00,,,0.00,WeatherDisplay:10.37,2013-11-05 08:50:00,
2013-11-05 03:55:00,39.7,24.4,30.50,WSW,239,6.0,6.0,54,0.00,,,0.00,WeatherDisplay:10.37,2013-11-05 08:55:00,
2013-11-05 04:00:00,39.6,24.3,30.51,South,191,10.4,10.4,54,0.00,,,0.00,WeatherDisplay:10.37,2013-11-05 09:00:00,
2013-11-05 04:05:00,39.4,24.1,30.51,SSW,212,0.0,0.0,54,0.00,,,0.00,WeatherDisplay:10.37,2013-11-05 09:05:00,
2013-11-05 04:10:00,39.3,24.5,30.51,SSE,156,3.5,3.5,55,0.00,,,0.00,WeatherDisplay:10.37,2013-11-05 09:10:00,
2013-11-05 04:15:00,39.2,24.4,30.51,SSE,163,3.5,3.5,55,0.00,,,0.00,WeatherDisplay:10.37,2013-11-05 09:15:00,
2013-11-05 04:20:00,39.3,24.5,30.52,SW,214,0.0,0.0,55,0.00,,,0.00,WeatherDisplay:10.37,2013-11-05 09:20:00,
2013-11-05 04:25:00,39.2,25.2,30.52,South,181,4.6,4.6,57,0.00,,,0.00,WeatherDisplay:10.37,2013-11-05 09:25:00,
2013-11-05 04:30:00,39.2,24.4,30.51,ESE,117,2.0,2.0,55,0.00,,,0.00,WeatherDisplay:10.37,2013-11-05 09:30:00,
2013-11-05 04:35:00,39.2,24.8,30.51,SW,234,0.0,0.0,56,0.00,,,0.00,WeatherDisplay:10.37,2013-11-05 09:35:00,
2013-11-05 04:40:00,39.1,24.3,30.52,South,186,0.0,0.0,55,0.00,,,0.00,WeatherDisplay:10.37,2013-11-05 09:40:00,
2013-11-05 04:45:00,39.1,24.3,30.51,SSE,148,5.8,5.8,55,0.00,,,0.00,WeatherDisplay:10.37,2013-11-05 09:45:00,
2013-11-05 04:50:00,38.9,24.1,30.52,SSE,156,0.0,0.0,55,0.00,,,0.00,WeatherDisplay:10.37,2013-11-05 09:50:00,
2013-11-05 04:55:00,38.8,24.4,30.52,SSW,210,0.0,0.0,56,0.00,,,0.00,WeatherDisplay:10.37,2013-11-05 09:55:00,
2013-11-05 05:00:00,38.7,23.9,30.52,SE,129,3.0,3.0,55,0.00,,,0.00,WeatherDisplay:10.37,2013-11-05 10:00:00,
2013-11-05 05:05:00,38.6,24.2,30.52,SSW,209,0.0,0.0,56,0.00,,,0.00,WeatherDisplay:10.37,2013-11-05 10:05:00,
2013-11-05 05:10:00,38.5,24.6,30.52,SW,229,0.0,0.0,57,0.00,,,0.00,WeatherDisplay:10.37,2013-11-05 10:10:00,
2013-11-05 05:15:00,38.4,24.1,30.52,SSW,211,0.0,0.0,56,0.00,,,0.00,WeatherDisplay:10.37,2013-11-05 10:15:00,
2013-11-05 05:20:00,38.4,24.1,30.52,South,173,0.0,0.0,56,0.00,,,0.00,WeatherDisplay:10.37,2013-11-05 10:20:00,
2013-11-05 05:25:00,38.4,24.1,30.52,SSE,155,0.0,0.0,56,0.00,,,0.00,WeatherDisplay:10.37,2013-11-05 10:25:00,
2013-11-05 05:30:00,38.2,24.3,30.51,South,185,0.0,0.0,57,0.00,,,0.00,WeatherDisplay:10.37,2013-11-05 10:30:00,
2013-11-05 05:35:00,38.2,24.3,30.51,South,176,4.0,4.0,57,0.00,,,0.00,WeatherDisplay:10.37,2013-11-05 10:35:00,
2013-11-05 05:40:00,38.1,24.6,30.51,SSW,203,0.0,0.2,58,0.00,,,0.00,WeatherDisplay:10.37,2013-11-05 10:40:00,
2013-11-05 05:45:00,38.1,24.6,30.51,SW,233,1.1,1.1,58,0.00,,,0.00,WeatherDisplay:10.37,2013-11-05 10:45:00,
2013-11-05 05:50:00,38.1,24.2,30.51,South,170,0.0,0.0,57,0.00,,,0.00,WeatherDisplay:10.37,2013-11-05 10:50:00,
2013-11-05 05:55:00,38.0,24.5,30.51,SSE,161,3.5,0.0,58,0.00,,,0.00,WeatherDisplay:10.37,2013-11-05 10:55:00,
2013-11-05 06:00:00,37.9,24.4,30.51,SE,137,0.0,0.0,58,0.00,,,0.00,WeatherDisplay:10.37,2013-11-05 11:00:00,
2013-11-05 06:05:00,37.9,24.4,30.51,South,188,0.0,0.0,58,0.00,,,0.00,WeatherDisplay:10.37,2013-11-05 11:05:00,
2013-11-05 06:10:00,37.8,24.7,30.51,SSE,152,4.6,4.6,59,0.00,,,0.00,WeatherDisplay:10.37,2013-11-05 11:10:00,
2013-11-05 06:15:00,37.8,24.3,30.51,South,172,0.0,0.0,58,0.00,,,0.00,WeatherDisplay:10.37,2013-11-05 11:15:00,
2013-11-05 06:20:00,37.7,24.2,30.51,SW,217,3.5,3.5,58,0.00,CLR,,0.00,WeatherDisplay:10.37,2013-11-05 11:20:00,
2013-11-05 06:25:00,37.7,24.6,30.51,SW,229,0.0,0.0,59,0.00,CLR,,0.00,WeatherDisplay:10.37,2013-11-05 11:25:00,
2013-11-05 06:30:00,37.6,24.1,30.51,SSW,197,0.0,0.0,58,0.00,CLR,,0.00,WeatherDisplay:10.37,2013-11-05 11:30:00,
2013-11-05 06:35:00,37.5,24.5,30.51,South,183,0.0,0.0,59,0.00,CLR,,0.00,WeatherDisplay:10.37,2013-11-05 11:35:00,
2013-11-05 06:40:00,37.5,24.5,30.51,SSW,201,0.0,0.0,59,0.00,CLR,,0.00,WeatherDisplay:10.37,2013-11-05 11:40:00,
2013-11-05 06:45:00,37.5,24.5,30.51,SW,229,0.0,0.0,59,0.00,CLR,,0.00,WeatherDisplay:10.37,2013-11-05 11:45:00,
2013-11-05 06:50:00,37.4,24.4,30.51,SSE,165,1.1,1.1,59,0.00,CLR,,0.00,WeatherDisplay:10.37,2013-11-05 11:50:00,
2013-11-05 06:55:00,37.5,24.5,30.51,SSE,161,0.0,0.0,59,0.00,CLR,,0.00,WeatherDisplay:10.37,2013-11-05 11:55:00,
2013-11-05 07:00:00,37.4,24.8,30.51,SW,222,0.0,0.0,60,0.00,CLR,,0.00,WeatherDisplay:10.37,2013-11-05 12:00:00,
2013-11-05 07:05:00,37.5,24.5,30.51,ESE,122,1.1,0.0,59,0.00,CLR,,0.00,WeatherDisplay:10.37,2013-11-05 12:05:00,
2013-11-05 07:10:00,37.5,24.9,30.51,South,190,1.1,1.1,60,0.00,CLR,,0.00,WeatherDisplay:10.37,2013-11-05 12:10:00,
2013-11-05 07:15:00,37.7,24.6,30.51,SSW,192,0.0,0.0,59,0.00,CLR,,0.00,WeatherDisplay:10.37,2013-11-05 12:15:00,
2013-11-05 07:20:00,37.9,25.6,30.51,SSW,207,0.0,0.0,61,0.00,CLR,,0.00,WeatherDisplay:10.37,2013-11-05 12:20:00,
2013-11-05 07:25:00,37.9,25.2,30.51,SSW,204,3.5,3.5,60,0.00,CLR,,0.00,WeatherDisplay:10.37,2013-11-05 12:25:00,
2013-11-05 07:30:00,38.1,25.4,30.51,SSW,211,0.0,0.0,60,0.00,CLR,,0.00,WeatherDisplay:10.37,2013-11-05 12:30:00,
2013-11-05 07:35:00,38.3,25.6,30.51,SE,131,3.5,3.5,60,0.00,CLR,,0.00,WeatherDisplay:10.37,2013-11-05 12:35:00,
2013-11-05 07:40:00,38.5,25.8,30.51,SE,141,1.0,0.0,60,0.00,CLR,,0.00,WeatherDisplay:10.37,2013-11-05 12:40:00,
2013-11-05 07:45:00,38.9,25.8,30.52,SSE,160,1.0,1.0,59,0.00,CLR,,0.00,WeatherDisplay:10.37,2013-11-05 12:45:00,
2013-11-05 07:50:00,39.2,25.6,30.52,SSW,195,3.5,3.5,58,0.00,CLR,,0.00,WeatherDisplay:10.37,2013-11-05 12:50:00,
2013-11-05 07:55:00,39.5,26.3,30.52,SSE,150,2.3,2.3,59,0.00,CLR,,0.00,WeatherDisplay:10.37,2013-11-05 12:55:00,
2013-11-05 08:00:00,39.7,26.5,30.52,ESE,117,2.3,2.3,59,0.00,CLR,,0.00,WeatherDisplay:10.37,2013-11-05 13:00:00,
2013-11-05 08:05:00,40.0,26.4,30.52,SSE,158,1.1,1.1,58,0.00,CLR,,0.00,WeatherDisplay:10.37,2013-11-05 13:05:00,
2013-11-05 08:10:00,40.3,27.1,30.52,South,186,3.5,3.5,59,0.00,CLR,,0.00,WeatherDisplay:10.37,2013-11-05 13:10:00,
2013-11-05 08:15:00,40.5,27.3,30.52,SE,138,0.0,0.0,59,0.00,CLR,,0.00,WeatherDisplay:10.37,2013-11-05 13:15:00,
2013-11-05 08:20:00,40.7,26.6,30.52,ESE,111,1.1,1.1,57,0.00,CLR,,0.00,WeatherDisplay:10.37,2013-11-05 13:20:00,
2013-11-05 08:25:00,41.0,27.8,30.52,South,170,2.3,0.0,59,0.00,CLR,,0.00,WeatherDisplay:10.37,2013-11-05 13:25:00,
2013-11-05 08:31:00,41.3,27.2,30.52,SW,223,2.3,2.3,57,0.00,CLR,,0.00,WeatherDisplay:10.37,2013-11-05 13:31:00,
2013-11-05 08:36:00,41.7,27.6,30.52,East,82,0.0,0.3,57,0.00,CLR,,0.00,WeatherDisplay:10.37,2013-11-05 13:36:00,
2013-11-05 08:41:00,42.0,27.0,30.52,SSW,211,3.5,3.5,55,0.00,CLR,,0.00,WeatherDisplay:10.37,2013-11-05 13:41:00,
2013-11-05 08:46:00,42.4,27.8,30.52,SSE,153,0.0,0.0,56,0.00,CLR,,0.00,WeatherDisplay:10.37,2013-11-05 13:46:00,
2013-11-05 08:51:00,42.7,27.2,30.52,South,184,2.3,0.0,54,0.00,CLR,,0.00,WeatherDisplay:10.37,2013-11-05 13:51:00,
2013-11-05 08:56:00,43.1,28.0,30.52,SSE,155,0.0,0.0,55,0.00,CLR,,0.00,WeatherDisplay:10.37,2013-11-05 13:56:00,
2013-11-05 09:01:00,43.4,27.8,30.51,SW,217,5.0,5.0,54,0.00,CLR,,0.00,WeatherDisplay:10.37,2013-11-05 14:01:00,
2013-11-05 09:06:00,43.6,28.9,30.51,SE,135,2.3,2.3,56,0.00,CLR,,0.00,WeatherDisplay:10.37,2013-11-05 14:06:00,
2013-11-05 09:11:00,43.9,28.3,30.51,SSW,210,3.5,3.5,54,0.00,CLR,,0.00,WeatherDisplay:10.37,2013-11-05 14:11:00,
2013-11-05 09:16:00,44.1,28.0,30.51,SSW,193,4.0,4.0,53,0.00,CLR,,0.00,WeatherDisplay:10.37,2013-11-05 14:16:00,
2013-11-05 09:21:00,44.3,28.7,30.51,ESE,115,5.8,5.8,54,0.00,CLR,,0.00,WeatherDisplay:10.37,2013-11-05 14:21:00,
2013-11-05 09:26:00,44.7,29.5,30.51,South,174,2.3,2.3,55,0.00,CLR,,0.00,WeatherDisplay:10.37,2013-11-05 14:26:00,
2013-11-05 09:31:00,45.0,28.9,30.51,SE,137,9.2,9.2,53,0.00,CLR,,0.00,WeatherDisplay:10.37,2013-11-05 14:31:00,
2013-11-05 09:36:00,45.3,29.2,30.52,SSW,211,4.0,4.0,53,0.00,CLR,,0.00,WeatherDisplay:10.37,2013-11-05 14:36:00,
2013-11-05 09:41:00,45.6,29.4,30.52,SE,141,4.6,4.6,53,0.00,CLR,,0.00,WeatherDisplay:10.37,2013-11-05 14:41:00,
2013-11-05 09:46:00,46.3,29.1,30.52,South,190,4.6,4.6,51,0.00,CLR,,0.00,WeatherDisplay:10.37,2013-11-05 14:46:00,
2013-11-05 09:51:00,46.3,28.7,30.52,SSW,205,4.6,4.6,50,0.00,CLR,,0.00,WeatherDisplay:10.37,2013-11-05 14:51:00,
2013-11-05 09:56:00,46.3,29.1,30.52,SE,129,0.0,0.0,51,0.00,CLR,,0.00,WeatherDisplay:10.37,2013-11-05 14:56:00,
2013-11-05 10:01:00,46.3,29.6,30.51,SSE,158,0.0,0.0,52,0.00,CLR,,0.00,WeatherDisplay:10.37,2013-11-05 15:01:00,
2013-11-05 10:06:00,46.4,29.7,30.51,SSE,163,4.6,4.6,52,0.00,CLR,,0.00,WeatherDisplay:10.37,2013-11-05 15:06:00,
2013-11-05 10:11:00,46.5,30.3,30.51,SSW,198,4.6,4.6,53,0.00,CLR,,0.00,WeatherDisplay:10.37,2013-11-05 15:11:00,
2013-11-05 10:16:00,46.7,30.0,30.51,ESE,119,1.1,1.1,52,0.00,CLR,,0.00,WeatherDisplay:10.37,2013-11-05 15:16:00,
2013-11-05 10:21:00,46.7,30.0,30.51,ESE,105,0.0,0.0,52,0.00,CLR,,0.00,WeatherDisplay:10.37,2013-11-05 15:21:00,
2013-11-05 10:26:00,46.8,29.6,30.51,SSE,161,3.5,3.5,51,0.00,CLR,,0.00,WeatherDisplay:10.37,2013-11-05 15:26:00,
2013-11-05 10:31:00,46.7,29.5,30.51,ENE,68,3.5,3.5,51,0.00,CLR,,0.00,WeatherDisplay:10.37,2013-11-05 15:31:00,
2013-11-05 10:36:00,47.0,29.3,30.51,SSW,192,4.6,4.6,50,0.00,CLR,,0.00,WeatherDisplay:10.37,2013-11-05 15:36:00,
2013-11-05 10:41:00,47.3,30.1,30.51,SE,135,3.5,3.5,51,0.00,CLR,,0.00,WeatherDisplay:10.37,2013-11-05 15:41:00,
2013-11-05 10:46:00,47.7,30.9,30.51,SSE,153,8.1,8.1,52,0.00,CLR,,0.00,WeatherDisplay:10.37,2013-11-05 15:46:00,
2013-11-05 10:51:00,48.0,30.7,30.51,ESE,117,0.0,0.0,51,0.00,CLR,,0.00,WeatherDisplay:10.37,2013-11-05 15:51:00,
2013-11-05 10:56:00,48.3,31.0,30.51,SW,226,3.5,3.5,51,0.00,CLR,,0.00,WeatherDisplay:10.37,2013-11-05 15:56:00,
2013-11-05 11:01:00,48.4,32.0,30.51,SE,129,5.8,5.8,53,0.00,CLR,,0.00,WeatherDisplay:10.37,2013-11-05 16:01:00,
2013-11-05 11:06:00,48.4,30.6,30.50,South,187,3.5,3.5,50,0.00,CLR,,0.00,WeatherDisplay:10.37,2013-11-05 16:06:00,
2013-11-05 11:11:00,48.3,31.0,30.50,SE,131,3.5,3.5,51,0.00,CLR,,0.00,WeatherDisplay:10.37,2013-11-05 16:11:00,
2013-11-05 11:16:00,48.4,30.1,30.50,WSW,239,0.0,0.0,49,0.00,CLR,,0.00,WeatherDisplay:10.37,2013-11-05 16:16:00,
2013-11-05 11:21:00,49.1,31.2,30.50,SSW,204,1.1,0.0,50,0.00,CLR,,0.00,WeatherDisplay:10.37,2013-11-05 16:21:00,
2013-11-05 11:26:00,49.7,30.8,30.50,South,169,10.4,10.4,48,0.00,CLR,,0.00,WeatherDisplay:10.37,2013-11-05 16:26:00,
2013-11-05 11:31:00,50.1,31.7,30.50,SSW,212,3.5,3.5,49,0.00,CLR,,0.00,WeatherDisplay:10.37,2013-11-05 16:31:00,
2013-11-05 11:36:00,50.7,32.2,30.49,West,266,3.0,3.0,49,0.00,CLR,,0.00,WeatherDisplay:10.37,2013-11-05 16:36:00,
2013-11-05 11:41:00,51.0,31.5,30.49,SSW,203,9.2,9.2,47,0.00,CLR,,0.00,WeatherDisplay:10.37,2013-11-05 16:41:00,
2013-11-05 11:46:00,51.2,32.2,30.48,ESE,117,10.4,10.4,48,0.00,CLR,,0.00,WeatherDisplay:10.37,2013-11-05 16:46:00,
2013-11-05 11:51:00,51.4,32.3,30.48,ESE,105,2.3,2.3,48,0.00,CLR,,0.00,WeatherDisplay:10.37,2013-11-05 16:51:00,
2013-11-05 11:56:00,51.7,32.6,30.48,SSW,195,2.3,2.3,48,0.00,CLR,,0.00,WeatherDisplay:10.37,2013-11-05 16:56:00,
2013-11-05 12:01:00,51.9,33.8,30.48,ESE,108,2.3,2.3,50,0.00,CLR,,0.00,WeatherDisplay:10.37,2013-11-05 17:01:00,
2013-11-05 12:06:00,52.2,32.6,30.48,WSW,240,2.3,2.3,47,0.00,CLR,,0.00,WeatherDisplay:10.37,2013-11-05 17:06:00,
2013-11-05 12:11:00,52.3,32.6,30.47,SSE,156,9.2,9.2,47,0.00,CLR,,0.00,WeatherDisplay:10.37,2013-11-05 17:11:00,
2013-11-05 12:16:00,52.2,32.6,30.47,SE,141,5.8,5.8,47,0.00,CLR,,0.00,WeatherDisplay:10.37,2013-11-05 17:16:00,
2013-11-05 12:21:00,52.0,32.9,30.47,SSE,161,2.3,2.3,48,0.00,CLR,,0.00,WeatherDisplay:10.37,2013-11-05 17:21:00,
2013-11-05 12:26:00,51.9,33.3,30.47,SW,214,4.6,4.6,49,0.00,CLR,,0.00,WeatherDisplay:10.37,2013-11-05 17:26:00,
2013-11-05 12:31:00,52.0,33.9,30.47,South,169,0.0,0.0,50,0.00,CLR,,0.00,WeatherDisplay:10.37,2013-11-05 17:31:00,
2013-11-05 12:36:00,52.2,33.1,30.47,SSW,197,0.0,0.0,48,0.00,CLR,,0.00,WeatherDisplay:10.37,2013-11-05 17:36:00,
2013-11-05 12:41:00,52.2,33.1,30.47,South,180,5.8,0.0,48,0.00,CLR,,0.00,WeatherDisplay:10.37,2013-11-05 17:41:00,
2013-11-05 12:46:00,52.3,33.2,30.46,SW,217,5.8,5.8,48,0.00,CLR,,0.00,WeatherDisplay:10.37,2013-11-05 17:46:00,
2013-11-05 12:51:00,52.2,33.6,30.46,South,173,0.0,0.0,49,0.00,CLR,,0.00,WeatherDisplay:10.37,2013-11-05 17:51:00,
2013-11-05 12:56:00,52.4,33.8,30.46,SE,135,0.0,0.0,49,0.00,CLR,,0.00,WeatherDisplay:10.37,2013-11-05 17:56:00,
2013-11-05 13:01:00,52.5,32.8,30.46,SSE,162,3.5,0.0,47,0.00,CLR,,0.00,WeatherDisplay:10.37,2013-11-05 18:01:00,
2013-11-05 13:06:00,52.6,34.0,30.46,SSE,161,2.3,2.3,49,0.00,CLR,,0.00,WeatherDisplay:10.37,2013-11-05 18:06:00,
2013-11-05 13:11:00,52.7,33.0,30.46,SSE,153,3.5,3.5,47,0.00,CLR,,0.00,WeatherDisplay:10.37,2013-11-05 18:11:00,
2013-11-05 13:16:00,52.9,33.7,30.45,East,88,0.0,0.0,48,0.00,CLR,,0.00,WeatherDisplay:10.37,2013-11-05 18:16:00,
2013-11-05 13:21:00,53.3,34.6,30.45,WSW,240,0.0,0.0,49,0.00,CLR,,0.00,WeatherDisplay:10.37,2013-11-05 18:21:00,
2013-11-05 13:26:00,53.6,33.3,30.45,SSW,201,2.0,2.0,46,0.00,CLR,,0.00,WeatherDisplay:10.37,2013-11-05 18:26:00,
2013-11-05 13:31:00,53.7,33.9,30.45,SSW,200,1.1,0.0,47,0.00,CLR,,0.00,WeatherDisplay:10.37,2013-11-05 18:31:00,
2013-11-05 13:36:00,54.0,34.2,30.45,South,176,4.0,4.0,47,0.00,CLR,,0.00,WeatherDisplay:10.37,2013-11-05 18:36:00,
2013-11-05 13:41:00,54.2,33.9,30.45,SW,221,1.1,1.1,46,0.00,CLR,,0.00,WeatherDisplay:10.37,2013-11-05 18:41:00,
2013-11-05 13:46:00,54.4,34.0,30.45,SE,146,3.5,3.5,46,0.00,CLR,,0.00,WeatherDisplay:10.37,2013-11-05 18:46:00,
2013-11-05 13:51:00,54.5,34.7,30.45,SSE,166,0.0,0.1,47,0.00,CLR,,0.00,WeatherDisplay:10.37,2013-11-05 18:51:00,
2013-11-05 13:56:00,54.5,35.2,30.45,SW,224,1.1,1.1,48,0.00,CLR,,0.00,WeatherDisplay:10.37,2013-11-05 18:56:00,
2013-11-05 14:01:00,54.3,34.5,30.45,South,176,10.4,10.4,47,0.00,CLR,,0.00,WeatherDisplay:10.37,2013-11-05 19:01:00,
2013-11-05 14:06:00,54.3,33.9,30.45,SW,226,2.3,2.3,46,0.00,CLR,,0.00,WeatherDisplay:10.37,2013-11-05 19:06:00,
2013-11-05 14:11:00,54.2,33.9,30.45,SSE,148,3.5,0.0,46,0.00,CLR,,0.00,WeatherDisplay:10.37,2013-11-05 19:11:00,
2013-11-05 14:16:00,54.1,34.3,30.45,South,191,9.2,9.2,47,0.00,CLR,,0.00,WeatherDisplay:10.37,2013-11-05 19:16:00,
2013-11-05 14:21:00,54.1,34.3,30.45,WSW,248,2.3,2.3,47,0.00,CLR,,0.00,WeatherDisplay:10.37,2013-11-05 19:21:00,
2013-11-05 14:26:00,53.9,34.6,30.44,SE,129,1.1,1.1,48,0.00,CLR,,0.00,WeatherDisplay:10.37,2013-11-05 19:26:00,
2013-11-05 14:31:00,53.8,34.6,30.44,SSE,157,3.5,3.5,48,0.00,CLR,,0.00,WeatherDisplay:10.37,2013-11-05 19:31:00,
2013-11-05 14:36:00,53.8,35.1,30.44,SSE,162,0.0,0.0,49,0.00,CLR,,0.00,WeatherDisplay:10.37,2013-11-05 19:36:00,
2013-11-05 14:42:00,53.8,35.6,30.45,SSW,193,3.5,0.0,50,0.00,CLR,,0.00,WeatherDisplay:10.37,2013-11-05 19:42:00,
2013-11-05 14:47:00,53.9,35.7,30.45,ESE,117,0.0,0.0,50,0.00,CLR,,0.00,WeatherDisplay:10.37,2013-11-05 19:47:00,
2013-11-05 14:52:00,53.9,35.7,30.45,SE,141,3.5,0.0,50,0.00,CLR,,0.00,WeatherDisplay:10.37,2013-11-05 19:52:00,
2013-11-05 14:57:00,54.0,35.8,30.45,SW,228,1.1,1.1,50,0.00,CLR,,0.00,WeatherDisplay:10.37,2013-11-05 19:57:00,
2013-11-05 15:02:00,54.0,36.3,30.45,South,169,1.1,0.0,51,0.00,CLR,,0.00,WeatherDisplay:10.37,2013-11-05 20:02:00,
2013-11-05 15:07:00,54.0,36.8,30.45,South,185,0.0,0.0,52,0.00,CLR,,0.00,WeatherDisplay:10.37,2013-11-05 20:07:00,
2013-11-05 15:12:00,54.0,36.3,30.45,SSE,156,4.6,4.6,51,0.00,CLR,,0.00,WeatherDisplay:10.37,2013-11-05 20:12:00,
2013-11-05 15:17:00,53.9,36.2,30.45,SSW,193,0.0,0.0,51,0.00,CLR,,0.00,WeatherDisplay:10.37,2013-11-05 20:17:00,
2013-11-05 15:22:00,53.8,36.6,30.45,SSE,160,3.5,0.0,52,0.00,CLR,,0.00,WeatherDisplay:10.37,2013-11-05 20:22:00,
2013-11-05 15:27:00,53.7,36.5,30.44,SSW,207,0.0,0.0,52,0.00,CLR,,0.00,WeatherDisplay:10.37,2013-11-05 20:27:00,
2013-11-05 15:32:00,53.6,36.4,30.44,South,184,0.0,1.4,52,0.00,CLR,,0.00,WeatherDisplay:10.37,2013-11-05 20:32:00,
2013-11-05 15:37:00,53.5,36.8,30.44,SSE,159,0.0,0.0,53,0.00,CLR,,0.00,WeatherDisplay:10.37,2013-11-05 20:37:00,
2013-11-05 15:42:00,53.4,37.2,30.44,SSW,193,0.0,0.0,54,0.00,CLR,,0.00,WeatherDisplay:10.37,2013-11-05 20:42:00,
2013-11-05 15:47:00,53.3,36.6,30.44,South,174,0.0,0.0,53,0.00,CLR,,0.00,WeatherDisplay:10.37,2013-11-05 20:47:00,
2013-11-05 15:52:00,53.0,35.8,30.44,SSW,204,0.0,0.0,52,0.00,CLR,,0.00,WeatherDisplay:10.37,2013-11-05 20:52:00,
2013-11-05 15:57:00,52.8,35.6,30.44,SSW,200,0.0,0.0,52,0.00,CLR,,0.00,WeatherDisplay:10.37,2013-11-05 20:57:00,
2013-11-05 16:02:00,52.6,35.9,30.44,SE,129,0.0,0.0,53,0.00,CLR,,0.00,WeatherDisplay:10.37,2013-11-05 21:02:00,
2013-11-05 16:07:00,52.4,35.8,30.43,South,184,1.1,1.1,53,0.00,CLR,,0.00,WeatherDisplay:10.37,2013-11-05 21:07:00,
2013-11-05 16:12:00,52.2,36.5,30.43,SSW,203,0.0,0.0,55,0.00,CLR,,0.00,WeatherDisplay:10.37,2013-11-05 21:12:00,
2013-11-05 16:17:00,52.1,35.9,30.43,SW,224,0.0,0.0,54,0.00,CLR,,0.00,WeatherDisplay:10.37,2013-11-05 21:17:00,
2013-11-05 16:22:00,52.1,35.9,30.43,SE,145,0.0,0.0,54,0.00,CLR,,0.00,WeatherDisplay:10.37,2013-11-05 21:22:00,
2013-11-05 16:27:00,51.9,35.8,30.43,ESE,117,1.1,1.1,54,0.00,CLR,,0.00,WeatherDisplay:10.37,2013-11-05 21:27:00,
2013-11-05 16:32:00,51.8,35.7,30.43,South,190,0.0,0.0,54,0.00,CLR,,0.00,WeatherDisplay:10.37,2013-11-05 21:32:00,
2013-11-05 16:37:00,51.6,35.9,30.43,South,189,0.0,0.0,55,0.00,CLR,,0.00,WeatherDisplay:10.37,2013-11-05 21:37:00,
2013-11-05 16:42:00,51.4,35.8,30.43,SSW,205,0.0,0.0,55,0.00,CLR,,0.00,WeatherDisplay:10.37,2013-11-05 21:42:00,
2013-11-05 16:47:00,51.4,35.8,30.43,SW,214,2.3,0.0,55,0.00,CLR,,0.00,WeatherDisplay:10.37,2013-11-05 21:47:00,
2013-11-05 16:52:00,51.3,35.7,30.43,SE,143,0.0,0.0,55,0.00,CLR,,0.00,WeatherDisplay:10.37,2013-11-05 21:52:00,
2013-11-05 16:57:00,51.1,35.9,30.43,SSW,197,0.0,0.0,56,0.00,CLR,,0.00,WeatherDisplay:10.37,2013-11-05 21:57:00,
2013-11-05 17:02:00,51.0,36.3,30.43,WSW,238,0.0,0.0,57,0.00,,,0.00,WeatherDisplay:10.37,2013-11-05 22:02:00,
2013-11-05 17:07:00,50.8,36.1,30.42,SSE,159,0.0,0.0,57,0.00,,,0.00,WeatherDisplay:10.37,2013-11-05 22:07:00,
2013-11-05 17:12:00,50.5,36.3,30.43,South,172,0.0,0.0,58,0.00,,,0.00,WeatherDisplay:10.37,2013-11-05 22:12:00,
2013-11-05 17:17:00,50.4,36.6,30.43,SW,216,0.0,0.0,59,0.00,,,0.00,WeatherDisplay:10.37,2013-11-05 22:17:00,
2013-11-05 17:22:00,50.5,36.7,30.43,SE,141,0.0,0.0,59,0.00,,,0.00,WeatherDisplay:10.37,2013-11-05 22:22:00,
2013-11-05 17:27:00,50.4,36.6,30.43,South,187,0.0,0.0,59,0.00,,,0.00,WeatherDisplay:10.37,2013-11-05 22:27:00,
2013-11-05 17:32:00,50.2,36.8,30.44,SSW,209,0.0,0.0,60,0.00,,,0.00,WeatherDisplay:10.37,2013-11-05 22:32:00,
2013-11-05 17:37:00,50.1,36.3,30.44,ESE,117,2.3,2.3,59,0.00,,,0.00,WeatherDisplay:10.37,2013-11-05 22:37:00,
2013-11-05 17:42:00,49.9,36.6,30.44,SW,219,0.0,0.0,60,0.00,,,0.00,WeatherDisplay:10.37,2013-11-05 22:42:00,
2013-11-05 17:47:00,49.6,36.3,30.44,South,190,0.0,0.0,60,0.00,,,0.00,WeatherDisplay:10.37,2013-11-05 22:47:00,
2013-11-05 17:52:00,49.6,35.8,30.44,SSE,163,0.0,0.0,59,0.00,,,0.00,WeatherDisplay:10.37,2013-11-05 22:52:00,
2013-11-05 17:57:00,49.7,35.5,30.44,SSE,153,0.0,0.0,58,0.00,,,0.00,WeatherDisplay:10.37,2013-11-05 22:57:00,
2013-11-05 18:02:00,49.7,35.9,30.44,SSE,160,0.0,0.0,59,0.00,,,0.00,WeatherDisplay:10.37,2013-11-05 23:02:00,
2013-11-05 18:07:00,49.7,35.5,30.44,South,176,0.0,0.0,58,0.00,,,0.00,WeatherDisplay:10.37,2013-11-05 23:07:00,
2013-11-05 18:12:00,49.6,35.8,30.45,South,188,0.0,0.0,59,0.00,,,0.00,WeatherDisplay:10.37,2013-11-05 23:12:00,
2013-11-05 18:17:00,49.7,35.5,30.45,South,191,0.0,0.0,58,0.00,,,0.00,WeatherDisplay:10.37,2013-11-05 23:17:00,
2013-11-05 18:22:00,49.6,35.4,30.44,NE,56,0.0,0.0,58,0.00,,,0.00,WeatherDisplay:10.37,2013-11-05 23:22:00,
2013-11-05 18:27:00,49.6,35.8,30.44,South,180,0.0,0.0,59,0.00,,,0.00,WeatherDisplay:10.37,2013-11-05 23:27:00,
2013-11-05 18:32:00,49.4,35.2,30.44,South,181,0.0,0.0,58,0.00,,,0.00,WeatherDisplay:10.37,2013-11-05 23:32:00,
2013-11-05 18:37:00,49.3,35.6,30.44,SSW,197,0.0,0.0,59,0.00,,,0.00,WeatherDisplay:10.37,2013-11-05 23:37:00,
2013-11-05 18:42:00,49.3,35.6,30.44,SSE,163,0.0,0.0,59,0.00,,,0.00,WeatherDisplay:10.37,2013-11-05 23:42:00,
2013-11-05 18:47:00,49.1,35.8,30.43,SSW,199,0.0,0.0,60,0.00,,,0.00,WeatherDisplay:10.37,2013-11-05 23:47:00,
2013-11-05 18:52:00,48.9,35.6,30.44,South,191,0.0,0.0,60,0.00,,,0.00,WeatherDisplay:10.37,2013-11-05 23:52:00,
2013-11-05 18:57:00,48.8,35.5,30.44,SSE,151,2.3,0.0,60,0.00,,,0.00,WeatherDisplay:10.37,2013-11-05 23:57:00,
2013-11-05 19:02:00,48.7,35.4,30.43,SSE,149,3.5,3.5,60,0.00,,,0.00,WeatherDisplay:10.37,2013-11-06 00:02:00,
2013-11-05 19:07:00,48.6,35.7,30.42,SSE,148,0.0,0.0,61,0.00,,,0.00,WeatherDisplay:10.37,2013-11-06 00:07:00,
2013-11-05 19:12:00,48.3,35.9,30.43,South,190,0.0,0.0,62,0.00,,,0.00,WeatherDisplay:10.37,2013-11-06 00:12:00,
2013-11-05 19:17:00,48.1,35.7,30.42,SSE,156,0.0,0.0,62,0.00,,,0.00,WeatherDisplay:10.37,2013-11-06 00:17:00,
2013-11-05 19:22:00,48.0,36.0,30.42,SW,224,2.3,2.3,63,0.00,,,0.00,WeatherDisplay:10.37,2013-11-06 00:22:00,
2013-11-05 19:27:00,48.2,36.2,30.42,SSW,208,0.0,0.0,63,0.00,,,0.00,WeatherDisplay:10.37,2013-11-06 00:27:00,
2013-11-05 19:32:00,48.2,35.8,30.42,South,179,1.1,1.1,62,0.00,,,0.00,WeatherDisplay:10.37,2013-11-06 00:32:00,
2013-11-05 19:37:00,48.3,36.3,30.42,South,181,0.0,0.0,63,0.00,,,0.00,WeatherDisplay:10.37,2013-11-06 00:37:00,
2013-11-05 19:42:00,48.2,36.2,30.42,SSE,158,1.1,1.1,63,0.00,,,0.00,WeatherDisplay:10.37,2013-11-06 00:42:00,
2013-11-05 19:47:00,48.3,35.9,30.42,SW,214,3.0,3.0,62,0.00,,,0.00,WeatherDisplay:10.37,2013-11-06 00:47:00,
2013-11-05 19:52:00,48.4,36.0,30.42,SSW,194,0.0,0.0,62,0.00,,,0.00,WeatherDisplay:10.37,2013-11-06 00:52:00,
2013-11-05 19:57:00,48.4,36.4,30.42,SE,146,0.0,0.0,63,0.00,,,0.00,WeatherDisplay:10.37,2013-11-06 00:57:00,
2013-11-05 20:02:00,48.4,36.0,30.42,South,170,3.5,3.5,62,0.00,,,0.00,WeatherDisplay:10.37,2013-11-06 01:02:00,
2013-11-05 20:07:00,48.5,36.5,30.42,ESE,114,2.3,0.0,63,0.00,,,0.00,WeatherDisplay:10.37,2013-11-06 01:07:00,
2013-11-05 20:12:00,48.5,36.5,30.41,ESE,121,0.0,0.1,63,0.00,,,0.00,WeatherDisplay:10.37,2013-11-06 01:12:00,
2013-11-05 20:17:00,48.5,36.5,30.41,South,170,0.0,0.0,63,0.00,,,0.00,WeatherDisplay:10.37,2013-11-06 01:17:00,
2013-11-05 20:22:00,48.5,36.9,30.41,South,176,3.5,0.0,64,0.00,,,0.00,WeatherDisplay:10.37,2013-11-06 01:22:00,
2013-11-05 20:27:00,48.5,36.9,30.40,SSW,209,0.0,0.0,64,0.00,,,0.00,WeatherDisplay:10.37,2013-11-06 01:27:00,
2013-11-05 20:32:00,48.5,36.9,30.40,SSE,162,0.0,0.0,64,0.00,,,0.00,WeatherDisplay:10.37,2013-11-06 01:32:00,
2013-11-05 20:37:00,48.5,36.9,30.40,SSE,166,0.0,0.0,64,0.00,,,0.00,WeatherDisplay:10.37,2013-11-06 01:37:00,
2013-11-05 20:42:00,48.5,37.3,30.40,South,191,0.0,0.0,65,0.00,,,0.00,WeatherDisplay:10.37,2013-11-06 01:42:00,
2013-11-05 20:47:00,48.6,37.4,30.40,South,180,0.0,0.0,65,0.00,,,0.00,WeatherDisplay:10.37,2013-11-06 01:47:00,
2013-11-05 20:52:00,48.5,37.7,30.40,SSW,197,0.0,0.0,66,0.00,,,0.00,WeatherDisplay:10.37,2013-11-06 01:52:00,
2013-11-05 20:58:00,48.7,37.8,30.40,SSW,204,0.0,0.0,66,0.00,,,0.00,WeatherDisplay:10.37,2013-11-06 01:58:00,
2013-11-05 21:02:00,48.7,37.8,30.40,SSW,203,0.0,0.0,66,0.00,,,0.00,WeatherDisplay:10.37,2013-11-06 02:02:00,
2013-11-05 21:08:00,48.7,37.8,30.40,SW,219,0.0,1.6,66,0.00,,,0.00,WeatherDisplay:10.37,2013-11-06 02:08:00,
2013-11-05 21:13:00,48.5,38.0,30.40,South,191,0.0,0.0,67,0.00,,,0.00,WeatherDisplay:10.37,2013-11-06 02:13:00,
2013-11-05 21:18:00,48.4,37.9,30.40,SSE,165,0.0,0.0,67,0.00,,,0.00,WeatherDisplay:10.37,2013-11-06 02:18:00,
2013-11-05 21:23:00,48.4,38.3,30.39,SW,219,0.0,0.5,68,0.00,,,0.00,WeatherDisplay:10.37,2013-11-06 02:23:00,
2013-11-05 21:28:00,48.4,38.7,30.39,South,177,0.0,0.0,69,0.00,,,0.00,WeatherDisplay:10.37,2013-11-06 02:28:00,
2013-11-05 21:33:00,48.4,38.3,30.39,SSE,150,0.0,0.3,68,0.00,,,0.00,WeatherDisplay:10.37,2013-11-06 02:33:00,
2013-11-05 21:38:00,48.5,38.8,30.38,SE,128,2.3,0.0,69,0.00,,,0.00,WeatherDisplay:10.37,2013-11-06 02:38:00,
2013-11-05 21:43:00,48.5,38.4,30.38,SE,129,0.0,0.4,68,0.00,,,0.00,WeatherDisplay:10.37,2013-11-06 02:43:00,
2013-11-05 21:48:00,48.5,38.8,30.38,SSW,201,0.0,0.0,69,0.00,,,0.00,WeatherDisplay:10.37,2013-11-06 02:48:00,
2013-11-05 21:53:00,48.5,38.8,30.38,East,86,0.0,0.0,69,0.00,,,0.00,WeatherDisplay:10.37,2013-11-06 02:53:00,
2013-11-05 21:58:00,48.5,38.8,30.38,SSE,158,0.0,0.0,69,0.00,,,0.00,WeatherDisplay:10.37,2013-11-06 02:58:00,
2013-11-05 22:03:00,48.5,38.8,30.38,SE,135,0.0,0.0,69,0.00,,,0.00,WeatherDisplay:10.37,2013-11-06 03:03:00,
2013-11-05 22:08:00,48.5,39.2,30.38,South,187,0.0,0.0,70,0.00,,,0.00,WeatherDisplay:10.37,2013-11-06 03:08:00,
2013-11-05 22:13:00,48.5,38.8,30.38,South,187,0.0,0.0,69,0.00,,,0.00,WeatherDisplay:10.37,2013-11-06 03:13:00,
2013-11-05 22:18:00,48.6,39.3,30.37,SSE,166,0.0,0.0,70,0.00,,,0.00,WeatherDisplay:10.37,2013-11-06 03:18:00,
2013-11-05 22:23:00,48.6,39.3,30.37,South,191,0.0,0.0,70,0.00,,,0.00,WeatherDisplay:10.37,2013-11-06 03:23:00,
2013-11-05 22:28:00,48.5,39.2,30.37,SSE,158,0.0,0.0,70,0.00,,,0.00,WeatherDisplay:10.37,2013-11-06 03:28:00,
2013-11-05 22:33:00,48.6,38.9,30.37,SSE,163,0.0,0.0,69,0.00,,,0.00,WeatherDisplay:10.37,2013-11-06 03:33:00,
2013-11-05 22:38:00,48.5,39.2,30.36,SSE,155,0.0,0.0,70,0.00,,,0.00,WeatherDisplay:10.37,2013-11-06 03:38:00,
2013-11-05 22:43:00,48.6,39.3,30.36,SSW,193,0.0,0.0,70,0.00,,,0.00,WeatherDisplay:10.37,2013-11-06 03:43:00,
2013-11-05 22:48:00,48.6,38.9,30.36,SSE,153,0.0,0.0,69,0.00,,,0.00,WeatherDisplay:10.37,2013-11-06 03:48:00,
2013-11-05 22:53:00,48.6,39.3,30.36,SSW,201,0.0,0.0,70,0.00,,,0.00,WeatherDisplay:10.37,2013-11-06 03:53:00,
2013-11-05 22:58:00,48.5,39.2,30.36,SSW,210,0.0,0.0,70,0.00,,,0.00,WeatherDisplay:10.37,2013-11-06 03:58:00,
2013-11-05 23:03:00,48.6,39.6,30.36,SSW,203,0.0,0.0,71,0.00,,,0.00,WeatherDisplay:10.37,2013-11-06 04:03:00,
2013-11-05 23:08:00,48.5,39.2,30.36,SSW,201,0.0,0.0,70,0.00,,,0.00,WeatherDisplay:10.37,2013-11-06 04:08:00,
2013-11-05 23:13:00,48.5,39.5,30.36,SSW,205,0.0,0.0,71,0.00,,,0.00,WeatherDisplay:10.37,2013-11-06 04:13:00,
2013-11-05 23:18:00,48.6,39.6,30.36,SSE,163,0.0,0.0,71,0.00,,,0.00,WeatherDisplay:10.37,2013-11-06 04:18:00,
2013-11-05 23:23:00,48.7,39.7,30.36,SE,134,0.0,0.0,71,0.00,,,0.00,WeatherDisplay:10.37,2013-11-06 04:23:00,
2013-11-05 23:28:00,48.7,39.7,30.36,SE,127,2.3,2.3,71,0.00,,,0.00,WeatherDisplay:10.37,2013-11-06 04:28:00,
2013-11-05 23:33:00,48.7,39.7,30.36,SSW,195,0.0,0.0,71,0.00,,,0.00,WeatherDisplay:10.37,2013-11-06 04:33:00,
2013-11-05 23:38:00,48.7,39.7,30.36,SW,217,0.0,0.0,71,0.00,,,0.00,WeatherDisplay:10.37,2013-11-06 04:38:00,
2013-11-05 23:43:00,48.7,39.7,30.36,South,172,1.1,1.1,71,0.00,,,0.00,WeatherDisplay:10.37,2013-11-06 04:43:00,
2013-11-05 23:48:00,48.7,40.1,30.36,SSE,168,0.0,0.0,72,0.00,,,0.00,WeatherDisplay:10.37,2013-11-06 04:48:00,
2013-11-05 23:54:00,48.7,40.1,30.37,SW,219,0.0,0.0,72,0.00,,,0.00,WeatherDisplay:10.37,2013-11-06 04:54:00,
2013-11-05 23:59:00,48.7,39.7,30.36,SSW,195,3.5,0.0,71,0.00,,,0.00,WeatherDisplay:10.37,2013-11-06 04:59:00,